Regional Weather Roundup
Issued by NWS

Home | Current Version | Previous Version | Graphics & Text | Print | Product List | Glossary On
Versions: 1 2 3 4 5 6 7 8 9 10 11 12 13 14 15 16 17 18 19 20 21 22 23 24 25 26 27 28
000
ASUS45 KBOU 221607
RWRCO

WEATHER ROUNDUP FOR COLORADO
NATIONAL WEATHER SERVICE DENVER/BOULDER CO
1000 AM MDT SAT JUL 22 2017

NOTE: "FAIR" INDICATES FEW OR NO CLOUDS BELOW 12000 FEET WITH NO
SIGNIFICANT WEATHER AND/OR OBSTRUCTIONS TO VISIBILITY.

COZ001>005-013-030-031-221700-
...NORTHWEST COLORADO...

CITY           SKY/WX    TMP DP  RH WIND       PRES   REMARKS
CRAIG          FAIR      68  55  63 CALM      30.32F
HAYDEN         FAIR      63  48  59 E7        30.34S
MEEKER         FAIR      66  52  60 SW3       30.32S
RABBIT EARS PA FAIR      61  46  59 MISG      30.62R
STEAMBOAT SPGS FAIR      62  51  67 NW6       30.36F
WALDEN         FAIR      59  50  72 CALM      30.46S
$$

COZ006>008-011-221700-
...WEST CENTRAL VALLEYS...

CITY           SKY/WX    TMP DP  RH WIND       PRES   REMARKS
GRAND JUNCTION FAIR      74  60  61 S7        30.21F
MONTROSE       FAIR      68  57  68 E6        30.29S
EAGLE          MOSUNNY   64  55  72 CALM      30.39F
RIFLE          FAIR      71  57  61 NW6       30.27F
DELTA          FAIR      73  60  61 SE6       30.25F
NUCLA          FAIR      72  52  49 CALM      30.29F
$$

COZ017>023-064>068-221700-
...SOUTHWEST COLORADO...

CITY           SKY/WX    TMP DP  RH WIND       PRES   REMARKS
DURANGO        FAIR      71  51  49 CALM      30.28F
CORTEZ         FAIR      72  56  57 S5        30.23S
PAGOSA SPRINGS FAIR      69  48  46 CALM      30.36S
TELLURIDE      CLOUDY    60  51  72 CALM      30.48S
WOLF CREEK PAS CLOUDY    55  41  58 CALM      30.72S
$$

COZ009-010-012-014-032>034-037-058>063-221700-
...CENTRAL COLORADO...

CITY           SKY/WX    TMP DP  RH WIND       PRES   REMARKS
ASPEN          FAIR      63  50  62 CALM      30.41F
BUENA VISTA    PTSUNNY   67  47  48 CALM      30.41S
COPPER MTN     FAIR      55  41  58 N5        30.72R
BERTHOUD PASS  FAIR      46  32  57 NE5       30.75R
COTTONWOOD PAS PTSUNNY   61  46  59 SE9       30.54S
GUNNISON       FAIR      64  52  64 CALM      30.40S
KREMMLING      FAIR      66  54  63 CALM      30.43F
LEADVILLE      FAIR      60  45  57 W3        30.51F
SALIDA         CLOUDY    63  51  63 CALM      30.47R
SUNLIGHT       FAIR      52  43  71 NE3       30.64S
WILKERSON PASS FAIR      59  36  41 NE8       30.68R
$$

COZ069>075-221700-
...SAN LUIS VALLEY/SANGRE DE CRISTO MOUNTAINS...

CITY           SKY/WX    TMP DP  RH WIND       PRES   REMARKS
ALAMOSA        FAIR      69  50  50 CALM      30.35F
DEL NORTE      FAIR      66  48  51 W5        30.40S
LA VETA PASS   NOT AVBL
SAGUACHE         N/A    N/A N/A N/A MISG        N/A
$$

COZ035-036-038>040-221700-
...NORTHERN COLORADO FRONT RANGE...

CITY           SKY/WX    TMP DP  RH WIND       PRES   REMARKS
DENVER INTL AP PTSUNNY   73  58  59 SW7       30.22S
DMNS CITY PARK   N/A     74  56  52 SW6       30.23S
AURORA         PTSUNNY   70  57  63 SW8       30.25S
FRONT RANGE AP FAIR      73  57  56 SW7       30.24S
ERIE MUNI ARPT FAIR      75  55  49 S5        30.21S
BOULDER MUN AP FAIR      77  52  41 S5        30.21S
CENTENNIAL     PTSUNNY   72  53  51 W7        30.26S
BROOMFIELD     FAIR      73  54  49 SW5       30.25S
FORT COLLINS   FAIR      75  57  53 S7        30.21R
LONGMONT       FAIR      80  55  41 S3        30.22R
$$

COZ041-046-047-076>085-087-088-221700-
...PIKES PEAK/PALMER DIVIDE AND SOUTHERN FOOTHILLS...

CITY           SKY/WX    TMP DP  RH WIND       PRES   REMARKS
COLO. SPRINGS  PTSUNNY   71  56  58 NW6       30.29S
A. F. ACADEMY  PTSUNNY   69  55  61 W3        30.30R
SCHRIEVER AFB  FAIR      70  54  56 N6        30.29R
CHEYENNE MTN   PTSUNNY   66  55  67 CALM      30.28R
ELLICOTT       FAIR     N/A N/A N/A W5        30.27R
FALCON           N/A     69  51  53 N3        30.33S
FORT CARSON    PTSUNNY   71  57  60 NE6       30.25S
LIMON          PTSUNNY   70  60  70 NW8       30.22S
MONUMENT HILL  FAIR      68  52  56 W5        30.35S
CANON CITY     MOSUNNY   73  57  56 MISG      30.22S
WALSENBURG     FAIR      79  48  34 SE5       30.25R
TRINIDAD       FAIR      81  47  30 SE8       30.22F
$$

COZ042>045-048>051-090-091-221700-
...NORTHEAST COLORADO...

CITY           SKY/WX    TMP DP  RH WIND       PRES   REMARKS
GREELEY ARPT   FAIR      78  62  57 S8        30.19S
AKRON          CLOUDY    71  59  65 VRB3      30.20
BURLINGTON     FAIR      77  61  57 N12       30.14
WRAY           NOT AVBL
YUMA           NOT AVBL
STERLING       CLOUDY    68  63  83 SW6       30.15R
HOLYOKE        FAIR      77  59  53 NW6       30.12S
FORT MORGAN    FAIR      72  62  70 S6        30.19R
$$

COZ086-089-092>099-221700-
...SOUTHEAST COLORADO...

CITY           SKY/WX    TMP DP  RH WIND       PRES   REMARKS
PUEBLO         FAIR      77  56  48 E5        30.17S
LA JUNTA       FAIR      79  58  48 NW8       30.13
LAMAR          FAIR      83  59  44 NW8       30.08S
SPRINGFIELD      N/A     83  54  36 N8        30.11S
$$




USA.gov is the U.S. government's official web portal to all federal, state and local government web resources and services.